Regional Weather Roundup
Issued by NWS

Home | Current Version | Previous Version | Graphics & Text | Print | Product List | Glossary On
Versions: 1 2 3 4 5 6 7 8 9 10 11 12 13 14 15 16 17 18 19 20 21 22 23 24 25 26 27 28 29 30 31 32 33 34 35 36 37 38 39 40 41 42 43 44 45 46 47 48 49 50
318
ASUS43 KFSD 261910
RWRSD

WEATHER ROUNDUP FOR SOUTH DAKOTA
NATIONAL WEATHER SERVICE SIOUX FALLS SD
200 PM CDT FRI MAY 26 2017

NOTE: "FAIR" INDICATES FEW OR NO CLOUDS BELOW 12,000 FEET WITH NO
SIGNIFICANT WEATHER AND/OR OBSTRUCTIONS TO VISIBILITY.


SDZ001>005-009-010-012>017-262000-
NORTHWEST AND NORTH CENTRAL SOUTH DAKOTA

CITY           SKY/WX    TMP DP  RH WIND       PRES   REMARKS
BUFFALO          N/A     64  36  35 W23G30    29.82S
FAITH            N/A     67  36  31 NW20G36   29.85F
MOBRIDGE       MOSUNNY   67  41  38 NW16      29.80S
$$

SDZ012>016-024>037-041>051-057-063-072>074-262000-
SOUTHWEST AND SOUTH CENTRAL SOUTH DAKOTA

CITY           SKY/WX    TMP DP  RH WIND       PRES   REMARKS
RAPID CTY ARPT MOSUNNY   66  36  32 NW9       29.89F
PIERRE         SUNNY     69  38  32 NW20G28   29.84S
CUSTER         CLOUDY    54  32  43 VRB7      29.94S
ELLSWORTH AFB  CLOUDY    64  35  34 NW9       29.89S
PHILIP         MOSUNNY   71  37  28 NW14      29.87F
PINE RIDGE     MOSUNNY   65  35  33 CALM      29.92F
SPEARFISH      FAIR      61  37  41 N10G17    29.91F
WINNER         FAIR      70  42  36 W12G24    29.88F
$$

SDZ004>011-016>023-039-040-262000-
NORTHEAST SOUTH DAKOTA

CITY           SKY/WX    TMP DP  RH WIND       PRES   REMARKS
ABERDEEN       MOSUNNY   70  40  33 NW14      29.79R
WATERTOWN      SUNNY     68  43  40 W18G26    29.79S
BROOKINGS      SUNNY     67  46  47 NW18      29.80F
SISSETON         N/A     70  44  39 W20G28    29.75R
$$

SDZ017-020-022-023-036>040-048>070-262000-
SOUTHEAST SOUTH DAKOTA

CITY           SKY/WX    TMP DP  RH WIND       PRES   REMARKS
SIOUX FALLS    MOSUNNY   71  50  47 W10G18    29.82R
HURON          SUNNY     71  41  33 NW16G25   29.81S
CHAMBERLAIN    SUNNY     71  42  34 W15G21    29.86S
MITCHELL       SUNNY     72  41  32 W16G28    29.83S
YANKTON          N/A     71  48  43 NW16      29.85R
$$

ABBREVIATIONS USED IN REMARKS
   TC - TEMPERATURE IN CELSIUS
  WCI - WIND CHILL INDEX
   HX - HEAT INDEX
  VSB - VISIBILITY





USA.gov is the U.S. government's official web portal to all federal, state and local government web resources and services.